Regional Weather Roundup
Issued by NWS Huntsville, AL

Home | Current Version | Previous Version | Text Only | Print | Product List | Glossary On
Versions: 1 2 3 4 5 6 7 8 9 10 11 12 13 14 15 16 17 18 19 20 21 22 23 24 25 26 27 28 29 30 31 32 33 34 35 36 37 38 39 40 41 42 43 44 45 46 47 48 49 50
000
ASUS44 KHUN 021910
RWRHUN

WEATHER ROUNDUP FOR THE TENNESSEE VALLEY
NATIONAL WEATHER SERVICE HUNTSVILLE AL
200 PM CDT TUE JUN 02 2015

ALZ001>004-022000-
NORTHWEST ALABAMA

CITY           SKY/WX    TMP DP  RH WIND       PRES   REMARKS
COURTLAND HCN    N/A     70 N/A N/A MISG        N/A
BANKHEAD NF      N/A     72  59  63 NW2         N/A
RUSSELLVILLE     N/A     72 N/A N/A MISG        N/A
SHOALS AIRPORT CLOUDY    77  57  50 VRB7      30.05F
SHOALS TVA RES   N/A     72 N/A N/A MISG        N/A
$$

ALZ005>007-016-022000-
NORTH CENTRAL ALABAMA

CITY           SKY/WX    TMP DP  RH WIND       PRES   REMARKS
CULLMAN AG STN   N/A     72 N/A N/A N6          N/A
DECATUR AP     CLOUDY    71  61  70 NW6       30.04F
HUNTSVILLE AP  PTSUNNY   75  61  61 VRB7      30.03F
HUN NWS/UAH      N/A     74  57  54 NW3         N/A
MERIDIANVILLE  CLOUDY    72  57  60 NW3       30.04F
REDSTONE ARSN  CLOUDY    73  62  67 NW6       30.02F
VINEMONT AP    MOCLDY    72  61  68 NW6       30.06F
$$

ALZ008>010-022000-
NORTHEAST ALABAMA

CITY           SKY/WX    TMP DP  RH WIND       PRES   REMARKS
ALBERTVILLE    PTSUNNY   73  66  78 CALM      30.01F
FORT PAYNE     CLOUDY    75  59  57 W5        30.00F
SCOTTSBORO HCN   N/A     77 N/A N/A MISG        N/A
VALLEY HEAD      N/A     77 N/A N/A MISG        N/A
$$

TNZ076-096-097-022000-
SOUTHEASTERN MIDDLE TENNESSEE

CITY           SKY/WX    TMP DP  RH WIND       PRES   REMARKS
TULLAHOMA      PTSUNNY   72  61  68 VRB5      30.05F
WINCHESTER     CLOUDY    73  61  64 W6        30.03F
$$

...SURROUNDING SITES...

CITY           SKY/WX    TMP DP  RH WIND       PRES   REMARKS
ATLANTA        PTSUNNY   80  62  54 NW9       29.99F
ANNISTON       SUNNY     81  62  52 MISG      29.99F
BIRMINGHAM     MOSUNNY   79  63  57 NW8       30.02F
CHATTANOOGA    MOSUNNY   82  59  45 NW7       29.98F
CORINTH        CLOUDY    72  59  64 CALM      30.05F
DALTON         MOSUNNY   79  61  53 CALM      29.98F
GADSDEN        MOSUNNY  N/A N/A N/A W7        29.97F
GOLDEN TRNGL   PTSUNNY   79  63  57 N6        30.03F
HALEYVILLE     CLOUDY    73  60  63 CALM      30.07F
JACKSON TN     CLOUDY    69  59  70 W6        30.07F
LEWISBURG      CLOUDY    71  59  66 VRB5      30.05F
MEMPHIS        CLOUDY    76  60  57 NE9       30.06F
NASHVILLE      CLOUDY    67  59  75 N5        30.08F
OXFORD MS      CLOUDY    72  59  64 N5        30.07F
ROME           LGT RAIN  75  65  70 NE3       29.99F
SAVANNAH       CLOUDY    70  32  24 CALM      30.06F
TUPELO         CLOUDY    73  60  63 N3        30.04F
TUSCALOOSA     MOSUNNY   82  61  48 MISG      30.00F
$$

...GULF COAST WEATHER...

CITY           SKY/WX    TMP DP  RH WIND       PRES   REMARKS
GULFPORT       CLOUDY    83  72  69 S3        29.96F
PASCAGOULA     MOSUNNY   87  70  56 VRB5      29.96F HX  92
MOBILE         PTSUNNY   83  69  62 N8        29.98F
GULF SHORES    PTCLDY    81  70  68 CALM      29.97F
PENSACOLA      PTSUNNY   82  73  74 CALM      29.96F
DESTIN         CLOUDY    84  72  67 S8        29.96F
PANAMA CITY    CLOUDY    82  71  70 S9        29.98S
APPALACHICOLA  CLOUDY    81  71  71 S7        29.99F
$$



USA.gov is the U.S. government's official web portal to all federal, state and local government web resources and services.